N1LJK-13 Weather Reports


time (UTC)temp
C
wind
direction
speed
KPH
gust
KPH
rain 1hr
cm
rain 24hr
cm
rain mn
cm
humidity
%
barometer
mb
20260506070532 11 249 8.0 9.7 0.00 0.00 0.00 98 1010.8
20260506060532 11 247 9.7 11.3 0.00 0.00 0.00 98 1010.6
20260506044531 12 226 9.7 12.9 0.00 0.00 0.00 98 1010.9
20260506042531 11 242 8.0 9.7 0.00 0.00 0.00 98 1010.8
20260506040531 11 247 6.4 9.7 0.00 0.00 0.00 98 1010.6
20260506034539 11 231 8.0 9.7 0.00 0.00 0.00 98 1010.6
20260506032531 11 241 6.4 9.7 0.00 0.00 0.00 98 1010.6
20260506030531 12 231 3.2 6.4 0.00 0.00 0.00 98 1010.6
20260506024531 12 235 8.0 12.9 0.00 0.00 0.00 98 1010.6
20260506020531 13 240 6.4 9.7 0.00 0.00 0.00 98 1010.7
20260506014531 13 258 9.7 16.1 0.00 0.00 0.00 98 1010.8
20260506012531 13 256 9.7 12.9 0.00 0.00 0.00 98 1010.6
20260506010531 13 217 8.0 12.9 0.00 0.00 0.00 98 1010.3
20260506004531 13 244 11.3 14.5 0.00 0.00 0.00 98 1009.8
20260506002531 14 238 8.0 9.7 0.00 0.00 0.00 98 1009.4
20260506000532 14 244 9.7 12.9 0.00 0.00 0.00 98 1009.4
20260505234531 12 245 9.7 12.9 0.00 0.00 0.00 98 1009.3
20260505232531 13 263 12.9 16.1 0.00 0.00 0.00 98 1007.8
20260505230531 13 234 11.3 14.5 0.00 0.00 0.00 98 1007.3
20260505224531 13 230 11.3 14.5 0.00 0.00 0.00 98 1007.2
20260505222531 13 248 12.9 16.1 0.00 0.00 0.00 98 1006.8
20260505220531 13 254 14.5 22.5 0.00 0.00 0.00 98 1006.9
20260505214531 13 235 17.7 24.1 0.00 0.00 0.00 98 1007.1
20260505212531 14 221 16.1 20.9 0.00 0.00 0.00 98 1007.0
20260505210531 15 241 19.3 30.6 0.00 0.00 0.00 98 1006.9
20260505204531 15 261 19.3 25.7 0.00 0.00 0.00 98 1006.9
20260505202531 15 236 16.1 19.3 0.00 0.00 0.00 98 1007.2
20260505200532 16 220 14.5 20.9 0.00 0.00 0.00 98 1007.4
20260505194531 16 230 8.0 11.3 0.00 0.00 0.00 98 1007.8
20260505192531 16 240 11.3 17.7 0.00 0.00 0.00 98 1008.2
20260505190533 17 246 11.3 19.3 0.00 0.00 0.00 98 1008.2
20260505182531 17 254 12.9 19.3 0.00 0.00 0.00 98 1008.4
20260505180531 17 234 14.5 16.1 0.00 0.00 0.00 98 1008.7
20260505174531 18 238 14.5 20.9 0.00 0.00 0.00 98 1009.4
20260505172531 17 232 16.1 22.5 0.00 0.00 0.00 98 1009.1
20260505170532 17 231 9.7 14.5 0.00 0.00 0.00 98 1009.5
20260505164531 17 234 11.3 16.1 0.00 0.00 0.00 98 1009.7
20260505160531 19 257 8.0 11.3 0.00 0.00 0.00 98 1010.2
20260505152533 14 246 12.9 17.7 0.00 0.00 0.00 98 1010.8
20260505150531 13 231 8.0 12.9 0.00 0.00 0.00 98 1010.6
20260505140531 15 218 14.5 19.3 0.00 0.00 0.00 98 1011.0
20260505124531 16 219 6.4 12.9 0.00 0.00 0.00 98 1010.6
20260505122531 14 243 8.0 11.3 0.00 0.00 0.00 98 1010.8
20260505120531 13 240 8.0 9.7 0.00 0.00 0.00 98 1010.9
20260505114531 12 253 8.0 14.5 0.00 0.00 0.00 98 1011.0
20260505112532 12 247 9.7 9.7 0.00 0.00 0.00 98 1011.1
20260505110532 11 239 6.4 8.0 0.00 0.00 0.00 98 1011.1
20260505094531 8 243 6.4 9.7 0.00 0.00 0.00 98 1010.8
20260505092531 8 254 3.2 4.8 0.00 0.00 0.00 98 1010.8
20260505090531 8 237 3.2 4.8 0.00 0.00 0.00 98 1010.9
20260505084531 8 251 3.2 4.8 0.00 0.00 0.00 98 1010.9
20260505082531 8 240 1.6 3.2 0.00 0.00 0.00 98 1010.9
20260505080531 8 248 3.2 3.2 0.00 0.00 0.00 98 1010.9
20260505074531 8 0 0.0 0.0 0.00 0.00 0.00 98 1010.9
20260505072531 10 248 1.6 3.2 0.00 0.00 0.00 98 1010.8